TimeAKDT,TemperatureF,Dew PointF,Humidity,Sea Level PressureIn,VisibilityMPH,Wind Direction,Wind SpeedMPH,Gust SpeedMPH,PrecipitationIn,Events,Conditions,WindDirDegrees,DateUTC
12:00 AM,53.6,51.8,94,29.54,9.0,East,5.8,-,0.01,Rain,Light Rain,90,2013-08-29 08:00:00
12:20 AM,53.6,51.8,94,29.54,5.0,Calm,Calm,-,0.06,Rain,Light Rain,0,2013-08-29 08:20:00
12:53 AM,53.1,52.0,96,29.53,2.0,Calm,Calm,-,0.22,Rain,Heavy Rain,0,2013-08-29 08:53:00
1:18 AM,53.6,51.8,94,29.53,4.0,Calm,Calm,-,0.13,Rain,Rain,0,2013-08-29 09:18:00
1:53 AM,53.1,52.0,96,29.52,6.0,NW,3.5,-,0.20,Rain,Light Rain,310,2013-08-29 09:53:00
2:05 AM,53.6,51.8,94,29.52,7.0,West,3.5,-,0.02,Rain,Rain,270,2013-08-29 10:05:00
2:39 AM,53.6,51.8,94,29.52,5.0,Calm,Calm,-,0.12,Rain,Rain,0,2013-08-29 10:39:00
2:53 AM,53.1,52.0,96,29.52,2.0,Calm,Calm,-,0.23,Rain,Heavy Rain,0,2013-08-29 10:53:00
3:02 AM,53.6,51.8,94,29.52,4.0,Calm,Calm,-,0.03,Rain,Rain,0,2013-08-29 11:02:00
3:27 AM,53.6,51.8,94,29.52,5.0,Calm,Calm,-,0.11,Rain,Rain,0,2013-08-29 11:27:00
3:53 AM,53.1,52.0,96,29.53,5.0,Calm,Calm,-,0.18,Rain,Rain,0,2013-08-29 11:53:00
4:53 AM,53.1,52.0,96,29.52,4.0,West,4.6,-,0.18,Rain,Rain,260,2013-08-29 12:53:00
5:16 AM,53.6,51.8,94,29.53,2.5,Calm,Calm,-,0.10,Rain,Heavy Rain,0,2013-08-29 13:16:00
5:29 AM,53.6,51.8,94,29.53,4.0,Calm,Calm,-,0.15,Rain,Rain,0,2013-08-29 13:29:00
5:53 AM,54.0,52.0,93,29.54,4.0,Calm,Calm,-,0.25,Rain,Rain,0,2013-08-29 13:53:00
6:03 AM,53.6,51.8,94,29.54,2.5,Variable,3.5,-,0.06,Rain,Heavy Rain,0,2013-08-29 14:03:00
6:12 AM,55.4,53.6,94,29.54,5.0,SE,4.6,-,0.09,Rain,Rain,140,2013-08-29 14:12:00
6:53 AM,54.0,53.1,97,29.55,4.0,Calm,Calm,-,0.24,Rain,Rain,0,2013-08-29 14:53:00
7:13 AM,53.6,53.6,100,29.55,6.0,Calm,Calm,-,0.05,Rain,Rain,0,2013-08-29 15:13:00
7:31 AM,53.6,53.6,100,29.56,3.0,Calm,Calm,-,0.12,Rain,Rain,0,2013-08-29 15:31:00
7:39 AM,53.6,53.6,100,29.56,2.5,Variable,3.5,-,0.16,Rain,Rain,0,2013-08-29 15:39:00
7:53 AM,54.0,53.1,97,29.56,2.5,SSE,5.8,-,0.22,Rain,Heavy Rain,150,2013-08-29 15:53:00
8:01 AM,55.4,53.6,94,29.56,3.0,SSE,5.8,-,0.02,Rain,Rain,160,2013-08-29 16:01:00
8:12 AM,55.4,53.6,94,29.57,3.0,Calm,Calm,-,0.05,Rain,Rain,0,2013-08-29 16:12:00
8:53 AM,54.0,53.1,97,29.58,4.0,NNE,3.5,-,0.14,Rain,Rain,20,2013-08-29 16:53:00
9:07 AM,53.6,53.6,100,29.59,2.5,NNE,4.6,-,0.06,Rain,Rain,20,2013-08-29 17:07:00
9:10 AM,53.6,53.6,100,29.59,3.0,Calm,Calm,-,0.06,Rain,Rain,0,2013-08-29 17:10:00
9:17 AM,53.6,53.6,100,29.60,4.0,Calm,Calm,-,0.08,Rain,Rain,0,2013-08-29 17:17:00
9:53 AM,55.0,54.0,96,29.62,6.0,Calm,Calm,-,0.14,Rain,Light Rain,0,2013-08-29 17:53:00
10:53 AM,55.0,52.0,89,29.64,10.0,NE,4.6,-,0.03,Rain,Light Rain,50,2013-08-29 18:53:00
11:53 AM,55.0,53.1,93,29.66,4.0,NE,3.5,-,0.09,Rain,Rain,40,2013-08-29 19:53:00
12:16 PM,55.4,53.6,94,29.67,2.5,Calm,Calm,-,0.08,Rain,Rain,0,2013-08-29 20:16:00
12:31 PM,55.4,53.6,94,29.67,4.0,Calm,Calm,-,0.12,Rain,Rain,0,2013-08-29 20:31:00
12:53 PM,55.0,54.0,96,29.69,2.5,Calm,Calm,-,0.19,Rain,Rain,0,2013-08-29 20:53:00
1:03 PM,55.4,53.6,94,29.69,4.0,Calm,Calm,-,0.02,Rain,Light Rain,0,2013-08-29 21:03:00
1:53 PM,55.9,54.0,93,29.70,6.0,East,3.5,-,0.08,Rain,Rain,80,2013-08-29 21:53:00
2:53 PM,57.0,54.0,89,29.71,10.0,ENE,4.6,-,0.09,Rain,Light Rain,60,2013-08-29 22:53:00
3:53 PM,57.9,54.0,87,29.73,10.0,Calm,Calm,-,0.02,Rain,Light Rain,0,2013-08-29 23:53:00
4:53 PM,55.9,53.1,90,29.74,10.0,SSE,3.5,-,0.00,Rain,Light Rain,160,2013-08-30 00:53:00
5:53 PM,55.9,54.0,93,29.75,10.0,North,4.6,-,0.01,,Overcast,350,2013-08-30 01:53:00
6:53 PM,55.0,54.0,96,29.77,10.0,Calm,Calm,-,0.01,Rain,Light Rain,0,2013-08-30 02:53:00
7:53 PM,53.1,53.1,100,29.79,6.0,Calm,Calm,-,0.01,Rain,Light Rain,0,2013-08-30 03:53:00
7:57 PM,53.6,51.8,94,29.79,1.8,Calm,Calm,-,0.00,Rain,Light Rain,0,2013-08-30 03:57:00
8:03 PM,53.6,51.8,94,29.79,0.8,Calm,Calm,-,0.00,,Overcast,0,2013-08-30 04:03:00
8:13 PM,53.6,51.8,94,29.79,1.2,Calm,Calm,-,0.00,,Overcast,0,2013-08-30 04:13:00
8:16 PM,53.6,51.8,94,29.79,3.0,Calm,Calm,-,0.00,,Overcast,0,2013-08-30 04:16:00
8:41 PM,53.6,53.6,100,29.80,1.2,Calm,Calm,-,0.00,,Overcast,0,2013-08-30 04:41:00
8:48 PM,53.6,51.8,94,29.80,0.5,Calm,Calm,-,0.00,Fog,Fog,0,2013-08-30 04:48:00
8:53 PM,54.0,53.1,97,29.80,2.0,Calm,Calm,-,0.00,,Overcast,0,2013-08-30 04:53:00
9:00 PM,53.6,53.6,100,29.80,10.0,Calm,Calm,-,N/A,,Overcast,0,2013-08-30 05:00:00
9:53 PM,53.1,52.0,96,29.82,9.0,North,3.5,-,N/A,,Overcast,10,2013-08-30 05:53:00
10:53 PM,54.0,52.0,93,29.84,10.0,NE,4.6,-,N/A,,Overcast,40,2013-08-30 06:53:00
11:53 PM,54.0,51.1,90,29.85,10.0,Variable,3.5,-,N/A,,Mostly Cloudy,0,2013-08-30 07:53:00